Regional Weather Roundup
Issued by NWS Boston, MA

Home | Current Version | Previous Version | Text Only | Print | Product List | Glossary On
Versions: 1 2 3 4 5 6 7 8 9 10 11 12 13 14 15 16 17 18 19 20 21 22 23 24 25 26 27 28 29 30 31 32 33 34 35 36 37 38 39 40 41 42 43 44 45 46 47 48 49 50
000
ASUS41 KBOX 190110
RWRBOX

REGIONAL WEATHER ROUNDUP
NATIONAL WEATHER SERVICE TAUNTON MA
900 PM EDT SAT APR 18 2015

NOTE:  "FAIR" INDICATES FEW OR NO CLOUDS BELOW 12,000 FEET WITH NO
SIGNIFICANT WEATHER AND/OR OBSTRUCTIONS TO VISIBILITY.  THE FOLLOWING
OBSERVATION LOCATIONS DO NOT REPORT PRESENT WEATHER...PROVINCETOWN...
SMITHFIELD...BLOCK ISLAND...KEENE...AND OXFORD.

MAZALL-190200-
EASTERN MASSACHUSETTS

CITY           SKY/WX    TMP DP  RH WIND       PRES   REMARKS
BOSTON         CLEAR     44  41  89 NE5       30.01R
BEVERLY        CLEAR     42  38  85 N6        29.99R
LAWRENCE       CLEAR     43  39  86 N5        30.02R
BEDFORD        CLEAR     47  40  76 NE3       29.99R
BLUE HILL        N/A     48  40  73 N13       29.97R
NORWOOD        CLEAR     48  40  73 NE3       29.99R
MARSHFIELD     CLEAR     45  41  87 N3        30.01R
PLYMOUTH       CLEAR     45  40  82 N5        29.99R
TAUNTON        CLEAR     50  41  71 CALM      29.98R
NEW BEDFORD    NOT AVBL
$$

MAZALL-190200-
CAPE COD AND THE ISLANDS

CITY           SKY/WX    TMP DP  RH WIND       PRES   REMARKS
FALMOUTH       MOCLDY    46  41  81 N7G14     29.98R
HYANNIS        CLEAR     47  42  83 N9        29.96R
CHATHAM        PTCLDY    49  42  77 NE12      29.97R
PROVINCETOWN   CLEAR     43  37  81 NE8       29.98R
NANTUCKET      PTCLDY    50  42  74 NW17      29.96R
MARTHAS VNYRD  CLEAR     51  43  74 N12       29.97R
$$

MAZALL-190200-
CENTRAL AND WESTERN MASSACHUSETTS

CITY           SKY/WX    TMP DP  RH WIND       PRES   REMARKS
WORCESTER      FAIR      55  39  54 N7        29.99R
FITCHBURG      CLEAR     53  41  63 CALM      30.00R
ORANGE         CLEAR     52  35  52 CALM      29.99R
SPRINGFIELD    CLEAR     59  37  44 N6        29.97R
WESTFIELD      CLEAR     64  27  24 NW8       29.98R
NORTH ADAMS    CLEAR     56  24  29 W7        30.02R
PITTSFIELD     CLEAR     57  27  31 NW16G24   30.00R
$$

RIZALL-190200-
RHODE ISLAND

CITY           SKY/WX    TMP DP  RH WIND       PRES   REMARKS
PROVIDENCE     CLEAR     54  40  59 NE9       29.98R
NEWPORT        CLEAR     55  41  59 N13       29.97R
BLOCK ISLAND   CLEAR     54  41  62 W12       29.96R
SMITHFIELD     CLEAR     54  36  50 NE9       29.98R
WESTERLY       CLEAR     58  43  57 CALM      29.96R
$$

CTZALL-190200-
CONNECTICUT

CITY           SKY/WX    TMP DP  RH WIND       PRES   REMARKS
BRADLEY INTL   CLEAR     65  30  27 NW10G20   29.97R
HARTFORD       CLEAR     66  29  24 NW9G22    29.97R
BRIDGEPORT     CLEAR     64  42  44 N9        29.97R
DANBURY        CLEAR     65  28  24 N9G20     29.99R
GROTON         CLEAR     59  42  53 W7        29.96R
NEW HAVEN      CLEAR     68  30  24 N15       29.96R
CHESTER        FAIR      66  28  24 N15       29.97R
MERIDEN        CLEAR     67  26  21 NW13G23   29.97R
WILLIMANTIC    CLEAR     67  29  24 NW13      29.96R
OXFORD         PTCLDY    63  28  27 N10       29.99R
$$

MEZ002-015-021-024-NHZ003-005-008-011-012-014-VTZ005-008-190200-
NORTHERN NEW ENGLAND

CITY           SKY/WX    TMP DP  RH WIND       PRES   REMARKS
PORTLAND ME    CLEAR     43  35  73 N3        30.02R
BANGOR ME      LGT RAIN  41  38  89 VRB7      29.99R
CONCORD NH     CLEAR     51  35  54 N12       30.01R
MANCHESTER NH  CLEAR     49  42  77 CALM      29.99R
NASHUA NH      CLEAR     49  44  83 CALM      30.00R
PORTSMOUTH NH  PTCLDY    42  40  92 NE5       30.00R
JAFFREY NH     CLEAR     45  38  76 CALM      30.00R
KEENE NH       CLEAR     57  30  35 N10G22    30.01R
BURLINGTON VT  MOCLDY    47  34  60 N9        30.11R
MT. WASHINGTON FOG       21  21 100 NW59        N/A  VSB 0   WCI  -2
$$

NYZ052-076-190200-
EASTERN NEW YORK

CITY           SKY/WX    TMP DP  RH WIND       PRES   REMARKS
ALBANY         CLEAR     61  21  21 NW18G24   30.05R
NEW YORK CITY  PTCLDY    71  33  24 N16G24    29.93R
$$

ANZALL-190200-
MARINE OBSERVATIONS

STATION/POSITION TIME  TEMP    WIND        PRES    VSBY  WAVE
                       AIR SEA DIR/SP/G                  HT/PER
                 (UTC) (F)     (DEG/KT/KT) (MB)    (MI)  (FT/S)
BOSTON BUOY      0050   42 42   10/  8/  8 1015.6R         2/ 3
BUZZARDS BAY     0000          270/ 20/ 22 1012.4R
NANTUCKET SOUND  0050   50 45  350/ 17/ 21 1014.2R         1/ 2
MASS BAY-STELLWA 0004   42 43   20/ 12/ 14   N/A    1 7/8  3/ 6
ISLE OF SHOALS   0000   42      40/ 12/ 14 1014.0R
S OF BLOCK IS    0008      41                N/A           4/ 7
$$

......................KEY.........................
  SKY/WX - SKY CONDITION/PRESENT WEATHER
  TMP    - TEMPERATURE IN FAHRENHEIT
  DWPT   - DEWPOINT IN FAHRENHEIT
  RH     - RELATIVE HUMIDITY IN PERCENT
  WIND   - DIRECTION AND SPEED IN MPH
  PRES   - MEAN SEA LEVEL PRESSURE IN INCHES OF HG
  WCI    - WIND CHILL INDEX
  VSB    - VISIBILITY IN MILES
  HX     - HEAT INDEX
  TC     - TEMPERATURE IN CELSIUS
  VRB    - VARIABLE WIND DIRECTION
  N/A    - NOT AVAILABLE



USA.gov is the U.S. government's official web portal to all federal, state and local government web resources and services.